GW2624 Weather Reports


time (UTC)temp
C
wind
direction
speed
KPH
gust
KPH
rain 1hr
cm
rain 24hr
cm
rain mn
cm
humidity
%
barometer
mb
20260901122903 14 0 0.0 1.6 0.05 0.86 0.76 87 1010.2
20260901121904 14 0 0.0 1.6 0.05 0.86 0.76 87 1010.3
20260901115404 14 0 0.0 3.2 0.08 0.86 0.76 87 1010.2
20260901114404 14 0 0.0 1.6 0.05 0.84 0.74 87 1010.4
20260901112904 14 0 1.6 4.8 0.03 0.81 0.71 87 1010.6
20260901112404 14 0 1.6 4.8 0.03 0.81 0.71 87 1010.5
20260901111404 14 0 0.0 4.8 0.03 0.81 0.71 87 1010.4
20260901104903 15 0 3.2 4.8 0.03 0.79 0.69 87 1010.5
20260901104404 15 0 0.0 1.6 0.05 0.79 0.69 87 1010.4
20260901102904 15 0 0.0 3.2 0.05 0.79 0.69 87 1010.3
20260901100904 15 0 0.0 0.0 0.05 0.79 0.69 87 1010.7
20260901100404 15 0 0.0 0.0 0.05 0.79 0.69 86 1010.8
20260901095404 15 0 0.0 1.6 0.05 0.79 0.69 86 1010.9
20260901093404 15 0 1.6 3.2 0.43 0.74 0.64 86 1011.1
20260901091903 15 0 0.0 4.8 0.58 0.74 0.64 86 1011.4
20260901090904 14 0 1.6 4.8 0.64 0.74 0.64 86 1011.3
20260901090404 14 0 0.0 14.5 0.64 0.74 0.64 86 1011.3
20260901084404 15 0 8.0 16.1 0.43 0.53 0.43 85 1010.7
20260901083404 16 0 6.4 14.5 0.20 0.30 0.20 86 1010.1
20260901082904 16 0 3.2 4.8 0.13 0.23 0.13 85 1010.0
20260901081404 15 0 1.6 3.2 0.00 0.10 0.00 85 1010.2
20260901080904 15 0 1.6 3.2 0.00 0.10 0.00 85 1010.0
20260901080404 15 0 0.0 1.6 0.00 0.10 0.00 85 1009.4
20260901075904 15 0 0.0 1.6 0.00 0.10 0.00 84 1009.3
20260901074904 15 0 0.0 1.6 0.00 0.10 0.00 84 1009.4
20260901073904 15 0 0.0 1.6 0.00 0.10 0.00 84 1009.6
20260901070903 16 0 0.0 1.6 0.00 0.10 0.00 83 1009.7
20260901065903 16 0 3.2 4.8 0.00 0.10 0.00 82 1009.7
20260901065404 16 0 0.0 3.2 0.00 0.10 0.00 82 1009.6
20260901064404 15 0 0.0 4.8 0.00 0.10 0.00 82 1009.4
20260901063404 15 0 0.0 1.6 0.00 0.10 0.00 82 1009.3
20260901062904 15 0 0.0 3.2 0.00 0.10 0.00 82 1009.3
20260901061404 15 0 0.0 0.0 0.00 0.10 0.00 83 1009.2
20260901060903 15 0 0.0 0.0 0.00 0.10 0.00 82 1009.1
20260901054904 15 0 0.0 4.8 0.03 0.10 0.10 81 1009.0
20260901053904 16 0 0.0 4.8 0.03 0.10 0.10 82 1009.0
20260901052404 16 0 0.0 3.2 0.03 0.10 0.10 80 1009.2
20260901051903 16 0 1.6 3.2 0.03 0.10 0.10 80 1009.2
20260901051403 16 0 0.0 4.8 0.03 0.10 0.10 79 1009.2
20260901045404 16 29 1.6 8.0 0.03 0.10 0.10 77 1010.1
20260901042404 16 142 4.8 11.3 0.00 0.08 0.08 76 1009.9
20260901041904 16 141 4.8 11.3 0.00 0.08 0.08 76 1009.6
20260901040404 16 88 0.0 4.8 0.00 0.08 0.08 74 1008.9
20260901035404 17 55 3.2 11.3 0.00 0.08 0.08 75 1009.3
20260901033403 17 139 1.6 4.8 0.00 0.08 0.08 71 1009.2
20260901031904 17 148 4.8 9.7 0.00 0.08 0.08 75 1009.5
20260901031404 17 143 3.2 4.8 0.00 0.08 0.08 76 1009.5
20260901025904 16 138 3.2 12.9 0.00 0.08 0.08 79 1009.2
20260901025404 16 146 6.4 12.9 0.00 0.08 0.08 80 1009.0
20260901024403 17 137 3.2 8.0 0.00 0.08 0.08 81 1008.6
20260901023904 17 144 3.2 8.0 0.00 0.08 0.08 82 1008.5
20260901022403 16 129 0.0 1.6 0.00 0.08 0.08 82 1008.0
20260901015903 17 99 0.0 4.8 0.03 0.08 0.08 82 1008.0
20260901014403 17 103 1.6 3.2 0.03 0.08 0.08 80 1008.0
20260901012904 17 21 3.2 4.8 0.03 0.08 0.08 77 1008.0
20260901012403 17 101 0.0 4.8 0.03 0.08 0.08 77 1007.9
20260901011904 18 53 0.0 4.8 0.03 0.08 0.08 76 1007.9
20260901011404 18 30 1.6 4.8 0.00 0.05 0.05 76 1007.8
20260901010904 18 265 0.0 4.8 0.00 0.05 0.05 77 1007.8
20260901005403 18 58 1.6 11.3 0.03 0.05 0.05 73 1008.1
20260901004403 18 125 3.2 12.9 0.05 0.05 0.05 70 1007.8
20260901003903 18 154 6.4 12.9 0.05 0.05 0.05 72 1007.5
20260901002904 18 139 6.4 14.5 0.05 0.05 0.05 74 1007.6
20260901001904 18 132 0.0 14.5 0.05 0.05 0.05 74 1007.8
20260901001404 19 146 4.8 19.3 0.05 0.05 0.05 72 1007.9
20260901000903 19 134 9.7 24.1 0.05 0.05 0.05 67 1007.6
20260831235904 20 170 8.0 20.9 0.03 0.03 0.03 57 1007.3
20260831235404 21 228 4.8 32.2 0.03 0.03 0.03 55 1006.5
20260831234904 22 196 11.3 32.2 0.03 0.03 0.03 48 1007.0
20260831233403 22 179 3.2 19.3 0.00 0.00 0.00 45 1005.6
20260831232903 22 137 6.4 19.3 0.00 0.00 0.00 46 1005.5
20260831232404 22 135 8.0 19.3 0.00 0.00 0.00 47 1005.5
20260831231904 22 144 4.8 12.9 0.00 0.00 0.00 48 1005.4
20260831231405 22 156 4.8 12.9 0.00 0.00 0.00 49 1005.5
20260831230904 22 129 3.2 9.7 0.00 0.00 0.00 49 1005.4
20260831230403 22 81 3.2 9.7 0.00 0.00 0.00 51 1005.2
20260831225905 22 134 3.2 12.9 0.00 0.00 0.00 54 1005.5
20260831224906 22 40 4.8 16.1 0.00 0.00 0.00 54 1005.6
20260831223905 24 143 8.0 29.0 0.00 0.00 0.00 47 1005.9
20260831223405 26 143 9.7 19.3 0.00 0.00 0.00 39 1005.6
20260831222905 27 140 8.0 16.1 0.00 0.00 0.00 36 1005.7
20260831222405 27 108 1.6 4.8 0.00 0.00 0.00 35 1005.2
20260831221905 27 330 1.6 4.8 0.00 0.00 0.00 35 1004.9
20260831221405 27 261 3.2 4.8 0.00 0.00 0.00 36 1004.9
20260831215405 27 59 3.2 4.8 0.00 0.00 0.00 35 1005.4
20260831214405 27 12 4.8 11.3 0.00 0.00 0.00 34 1005.2
20260831213905 27 19 3.2 11.3 0.00 0.00 0.00 35 1005.3
20260831211405 27 298 1.6 14.5 0.00 0.00 0.00 35 1005.4
20260831210405 27 130 4.8 20.9 0.00 0.00 0.00 34 1005.6
20260831203405 28 152 8.0 19.3 0.00 0.00 0.00 32 1005.8
20260831201405 28 162 4.8 22.5 0.00 0.00 0.00 31 1006.0
20260831200905 28 198 8.0 22.5 0.00 0.00 0.00 31 1006.1
20260831195905 28 220 3.2 8.0 0.00 0.00 0.00 32 1006.0
20260831195404 28 179 1.6 8.0 0.00 0.00 0.00 32 1006.0
20260831194905 28 172 3.2 8.0 0.00 0.00 0.00 31 1006.1
20260831194405 28 46 3.2 8.0 0.00 0.00 0.00 32 1006.2
20260831193906 28 214 3.2 4.8 0.00 0.00 0.00 32 1006.5
20260831192905 28 228 4.8 14.5 0.00 0.00 0.00 34 1006.6
20260831191905 27 231 1.6 11.3 0.00 0.00 0.00 34 1006.6
20260831191405 27 260 3.2 14.5 0.00 0.00 0.00 33 1006.6
20260831190905 27 210 4.8 14.5 0.00 0.00 0.00 33 1006.7
20260831190405 28 265 3.2 12.9 0.00 0.00 0.00 33 1006.8
20260831184905 28 204 3.2 8.0 0.00 0.00 0.00 33 1006.9
20260831183905 28 207 3.2 8.0 0.00 0.00 0.00 32 1006.9
20260831182905 28 97 1.6 8.0 0.00 0.00 0.00 31 1007.1
20260831181405 28 219 4.8 9.7 0.00 0.00 0.00 32 1007.4
20260831175404 28 281 1.6 9.7 0.00 0.00 0.00 33 1007.7
20260831174404 28 88 3.2 12.9 0.00 0.00 0.00 35 1007.6
20260831171905 26 236 3.2 11.3 0.00 0.00 0.00 36 1007.9
20260831171405 26 269 4.8 11.3 0.00 0.00 0.00 36 1007.9
20260831165905 25 84 3.2 4.8 0.00 0.00 0.00 36 1008.0
20260831164905 25 62 3.2 11.3 0.00 0.00 0.00 39 1008.1
20260831164405 24 82 3.2 11.3 0.00 0.00 0.00 39 1008.0
20260831163904 24 111 1.6 11.3 0.00 0.00 0.00 40 1008.1
20260831161905 23 16 3.2 11.3 0.00 0.00 0.00 43 1008.1
20260831161406 23 284 1.6 8.0 0.00 0.00 0.00 43 1008.1
20260831160905 23 307 1.6 8.0 0.00 0.00 0.00 43 1008.1
20260831155405 23 233 1.6 8.0 0.00 0.00 0.00 44 1008.2
20260831154905 23 2 3.2 12.9 0.00 0.00 0.00 44 1008.3
20260831154405 23 340 4.8 12.9 0.00 0.00 0.00 44 1008.4
20260831153905 22 317 3.2 12.9 0.00 0.00 0.00 46 1008.5
20260831153404 22 23 3.2 12.9 0.00 0.00 0.00 45 1008.6
20260831152905 22 273 3.2 12.9 0.00 0.00 0.00 48 1008.8
20260831152405 21 230 1.6 12.9 0.00 0.00 0.00 50 1009.0
20260831150905 20 65 3.2 4.8 0.00 0.00 0.00 52 1009.2
20260831150405 20 209 3.2 4.8 0.00 0.00 0.00 54 1009.3
20260831145405 20 303 1.6 4.8 0.00 0.00 0.00 55 1009.4
20260831143405 19 6 3.2 12.9 0.00 0.00 0.00 57 1009.6
20260831142406 19 311 3.2 12.9 0.00 0.00 0.00 58 1009.7
20260831141405 18 339 3.2 12.9 0.00 0.00 0.00 59 1009.7
20260831140904 18 13 1.6 4.8 0.00 0.00 0.00 60 1009.6
20260831133405 17 37 1.6 4.8 0.00 0.00 0.00 61 1009.9
20260831132904 17 355 0.0 4.8 0.00 0.00 0.00 61 1009.6
20260831132405 17 13 1.6 12.9 0.00 0.00 0.00 61 1009.5
20260831131904 17 0 1.6 12.9 0.00 0.00 0.00 61 1009.6
20260831131405 17 0 0.0 8.0 0.00 0.00 0.00 61 1009.5
20260831125405 17 0 0.0 3.2 0.00 0.00 0.00 59 1009.3
20260831124905 17 0 0.0 3.2 0.00 0.00 0.00 59 1009.2
20260831124404 17 0 0.0 4.8 0.00 0.00 0.00 59 1009.2
20260831123404 17 0 1.6 4.8 0.00 0.00 0.00 59 1009.0